Regional Weather Roundup
Issued by NWS Little Rock, AR

Home | Current Version | Previous Version | Text Only | Print | Product List | Glossary On
Versions: 1 2 3 4 5 6 7 8 9 10 11 12 13 14 15 16 17 18 19 20 21 22 23 24 25 26 27 28 29 30 31 32 33 34 35 36 37 38 39 40 41 42 43 44 45 46 47 48 49 50
456
ASUS44 KLZK 240612
RWRLZK

WEATHER ROUNDUP FOR ARKANSAS
NATIONAL WEATHER SERVICE LITTLE ROCK AR
1200 AM CST FRI FEB 24 2017

NOTE: "FAIR" INDICATES FEW OR NO CLOUDS BELOW 12,000 FEET WITH NO
SIGNIFICANT WEATHER AND/OR OBSTRUCTIONS TO VISIBILITY.

ARZ001-003-010-029-240700-
NORTHWEST ARKANSAS

CITY           SKY/WX    TMP DP  RH WIND       PRES   REMARKS
FAYETTEVILLE   CLEAR     67  53  61 S16G22    29.49R
6HR MIN TEMP:  67; 6HR MAX TEMP:  75;

FORT SMITH     PTCLDY    66  51  58 CALM      29.51R
6HR MIN TEMP:  63; 6HR MAX TEMP:  79;

HARRISON       CLEAR     67  54  63 S21G28    29.49F
6HR MIN TEMP:  67; 6HR MAX TEMP:  72;

BENTONVILLE    CLEAR     70  50  49 S17G25    29.48F
6HR MIN TEMP:  68; 6HR MAX TEMP:  75;

ROGERS         PTCLDY    69  52  54 S23G29    29.48F
6HR MIN TEMP:  68; 6HR MAX TEMP:  75;

SILOAM SPGS    CLEAR     68  48  49 S18G26    29.46F
6HR MIN TEMP:  68; 6HR MAX TEMP:  75;

HIGHFILL       CLEAR     69  51  52 S21G28    29.46F
6HR MIN TEMP:  68; 6HR MAX TEMP:  76;

$$

ARZ004-005-016-240700-
NORTH CENTRAL ARKANSAS

CITY           SKY/WX    TMP DP  RH WIND       PRES   REMARKS
BATESVILLE     CLEAR     64  54  68 SE7       29.61S
6HR MIN TEMP:  64; 6HR MAX TEMP:  70;

FLIPPIN        CLEAR     68  52  56 S10G17    29.49F
6HR MIN TEMP:  68; 6HR MAX TEMP:  73;

MTN HOME       CLEAR     66  54  65 S15G22    29.51F
6HR MIN TEMP:  66; 6HR MAX TEMP:  73;

$$

ARZ040-041-240700-
WEST CENTRAL ARKANSAS

CITY           SKY/WX    TMP DP  RH WIND       PRES   REMARKS
MENA           PTCLDY    70  57  64 S8        29.59R
MOUNT IDA      CLEAR     69  54  58 VRB3      29.57F
6HR MIN TEMP:  68; 6HR MAX TEMP:  76;

$$

ARZ009-017-025-026-028-240700-
NORTHEAST ARKANSAS

CITY           SKY/WX    TMP DP  RH WIND       PRES   REMARKS
CORNING        FAIR      66  57  72 S17G28    29.60S
JONESBORO      CLEAR     62  55  77 S15       29.61F
6HR MIN TEMP:  61; 6HR MAX TEMP:  69;

NEWPORT        CLEAR     61  56  83 MISG      29.61S
6HR MIN TEMP:  61; 6HR MAX TEMP:  70;

WALNUT RIDGE   PTCLDY    64  54  68 S18       29.60R
6HR MIN TEMP:  61; 6HR MAX TEMP:  66;

BLYTHEVILLE    CLEAR     63  59  87 S12       29.64F
6HR MIN TEMP:  62; 6HR MAX TEMP:  70;

$$

ARZ022-023-033-042-044-240700-
CENTRAL ARKANSAS

CITY           SKY/WX    TMP DP  RH WIND       PRES   REMARKS
LITTLE ROCK    PTCLDY    62  56  80 S10       29.62S
6HR MIN TEMP:  61; 6HR MAX TEMP:  72;

N LITTLE ROCK    N/A     64  56  75 S8        29.63R
6HR MIN TEMP:  64; 6HR MAX TEMP:  73;

JACKSONVILLE   CLEAR     63  57  80 S5        29.62R
6HR MIN TEMP:  63; 6HR MAX TEMP:  73;

SEARCY         CLEAR     66  57  72 S12       29.64R
6HR MIN TEMP:  62; 6HR MAX TEMP:  70;

HOT SPRINGS    CLEAR     67  56  67 S10       29.61F
6HR MIN TEMP:  67; 6HR MAX TEMP:  76;

RUSSELLVILLE   CLEAR     69  55  60 SE8       29.55F
6HR MIN TEMP:  63; 6HR MAX TEMP:  75;

CLINTON        FAIR      54  54 100 CALM      29.59F
$$

ARZ036-240700-
EAST ARKANSAS

CITY           SKY/WX    TMP DP  RH WIND       PRES   REMARKS
WEST MEMPHIS   PTCLDY    62  60  93 S13       29.65F
6HR MIN TEMP:  60; 6HR MAX TEMP:  70;

$$

ARZ050-053-066-070-073-240700-
SOUTHWEST ARKANSAS

CITY           SKY/WX    TMP DP  RH WIND       PRES   REMARKS
ARKADELPHIA    FAIR      57  55  93 CALM      29.63S
6HR MIN TEMP:  57; 6HR MAX TEMP:  74;

CAMDEN         PTCLDY    64  52  63 S7        29.64R
TEXARKANA      CLEAR     65  54  67 S14G23    29.59F
6HR MIN TEMP:  65; 6HR MAX TEMP:  75;

EL DORADO      CLEAR     64  55  72 S13       29.66S
6HR MIN TEMP:  64; 6HR MAX TEMP:  74;

DE QUEEN       PTCLDY    65  57  75 CALM      29.56S
6HR MIN TEMP:  65; 6HR MAX TEMP:  79;

$$

ARZ056-057-069-240700-
SOUTHEAST ARKANSAS

CITY           SKY/WX    TMP DP  RH WIND       PRES   REMARKS
PINE BLUFF     CLEAR     64  56  75 S15       29.64S
6HR MIN TEMP:  64; 6HR MAX TEMP:  72;

STUTTGART      CLEAR     66  52  59 S16       29.64S
6HR MIN TEMP:  66; 6HR MAX TEMP:  70;

MONTICELLO     CLEAR     64  56  75 S8        29.67S
6HR MIN TEMP:  63; 6HR MAX TEMP:  73;


$$






USA.gov is the U.S. government's official web portal to all federal, state and local government web resources and services.